| time (UTC) | temp F | wind direction | speed knots | gust knots | rain 1hr in | rain 24hr in | rain mn in | humidity % | barometer mb |
| 20260506024630 | 69 | 314 | 6.1 | 7.8 | 0.00 | 0.00 | 0.00 | 40 | 985.4 |
| 20260506023026 | 70 | 310 | 6.1 | 7.8 | 0.00 | 0.00 | 0.00 | 38 | 985.4 |
| 20260506021529 | 70 | 323 | 6.1 | 8.7 | 0.00 | 0.00 | 0.00 | 39 | 985.4 |
| 20260506020017 | 70 | 306 | 7.0 | 8.7 | 0.00 | 0.00 | 0.00 | 38 | 985.1 |
| 20260506014618 | 72 | 307 | 7.8 | 10.4 | 0.00 | 0.00 | 0.00 | 35 | 985.0 |
| 20260506013015 | 73 | 309 | 7.8 | 11.3 | 0.00 | 0.00 | 0.00 | 34 | 984.9 |
| 20260506011514 | 74 | 305 | 7.0 | 11.3 | 0.00 | 0.00 | 0.00 | 33 | 984.9 |
| 20260506010033 | 75 | 296 | 8.7 | 11.3 | 0.00 | 0.00 | 0.00 | 32 | 984.8 |
| 20260506004613 | 76 | 267 | 7.0 | 11.3 | 0.00 | 0.00 | 0.00 | 30 | 984.7 |
| 20260506003014 | 77 | 268 | 8.7 | 14.8 | 0.00 | 0.00 | 0.00 | 29 | 984.6 |
| 20260506001513 | 78 | 244 | 13.0 | 18.2 | 0.00 | 0.00 | 0.00 | 28 | 984.7 |
| 20260506000013 | 78 | 244 | 11.3 | 20.0 | 0.00 | 0.00 | 0.00 | 28 | 984.7 |
| 20260505234614 | 79 | 234 | 16.5 | 30.4 | 0.00 | 0.00 | 0.00 | 28 | 984.7 |
| 20260505233022 | 77 | 275 | 6.1 | 17.4 | 0.00 | 0.00 | 0.00 | 29 | 984.7 |
| 20260505231517 | 76 | 216 | 11.3 | 19.1 | 0.00 | 0.00 | 0.00 | 30 | 984.8 |
| 20260505230015 | 77 | 223 | 13.0 | 21.7 | 0.00 | 0.00 | 0.00 | 30 | 985.0 |
| 20260505224613 | 75 | 212 | 8.7 | 13.0 | 0.00 | 0.00 | 0.00 | 33 | 985.0 |
| 20260505223012 | 74 | 226 | 9.6 | 20.0 | 0.00 | 0.00 | 0.00 | 33 | 985.1 |
| 20260505221511 | 74 | 225 | 17.4 | 21.7 | 0.00 | 0.00 | 0.00 | 32 | 985.2 |
| 20260505220012 | 74 | 230 | 15.6 | 21.7 | 0.00 | 0.00 | 0.00 | 32 | 985.5 |
| 20260505214626 | 75 | 246 | 18.2 | 26.9 | 0.00 | 0.00 | 0.00 | 31 | 985.5 |
| 20260505213011 | 75 | 242 | 18.2 | 26.1 | 0.00 | 0.00 | 0.00 | 30 | 985.6 |
| 20260505211512 | 75 | 242 | 15.6 | 25.2 | 0.00 | 0.00 | 0.00 | 30 | 985.7 |
| 20260505210010 | 76 | 248 | 16.5 | 23.5 | 0.00 | 0.00 | 0.00 | 29 | 985.9 |
| 20260505204608 | 76 | 244 | 19.1 | 26.1 | 0.00 | 0.00 | 0.00 | 29 | 985.7 |
| 20260505203016 | 76 | 235 | 13.0 | 19.1 | 0.00 | 0.00 | 0.00 | 28 | 985.9 |
| 20260505201505 | 76 | 236 | 13.0 | 19.1 | 0.00 | 0.00 | 0.00 | 29 | 986.2 |
| 20260505200004 | 76 | 257 | 12.2 | 19.1 | 0.00 | 0.00 | 0.00 | 29 | 986.1 |
| 20260505194609 | 76 | 233 | 12.2 | 20.9 | 0.00 | 0.00 | 0.00 | 28 | 986.3 |
| 20260505193055 | 76 | 241 | 16.5 | 21.7 | 0.00 | 0.00 | 0.00 | 28 | 986.2 |
| 20260505191556 | 76 | 251 | 8.7 | 15.6 | 0.00 | 0.00 | 0.00 | 29 | 986.0 |
| 20260505190053 | 77 | 244 | 13.9 | 25.2 | 0.00 | 0.00 | 0.00 | 29 | 986.3 |
| 20260505184554 | 76 | 261 | 15.6 | 23.5 | 0.00 | 0.00 | 0.00 | 29 | 986.4 |
| 20260505183103 | 76 | 263 | 15.6 | 23.5 | 0.00 | 0.00 | 0.00 | 29 | 986.7 |
| 20260505181558 | 76 | 286 | 14.8 | 23.5 | 0.00 | 0.00 | 0.00 | 30 | 986.8 |
| 20260505180108 | 75 | 259 | 16.5 | 26.9 | 0.00 | 0.00 | 0.00 | 31 | 986.7 |
| 20260505174604 | 75 | 279 | 18.2 | 25.2 | 0.00 | 0.00 | 0.00 | 31 | 986.8 |
| 20260505173011 | 74 | 279 | 18.2 | 26.9 | 0.00 | 0.00 | 0.00 | 31 | 986.8 |
| 20260505171504 | 74 | 259 | 17.4 | 26.9 | 0.00 | 0.00 | 0.00 | 31 | 986.8 |
| 20260505170003 | 74 | 269 | 18.2 | 25.2 | 0.00 | 0.00 | 0.00 | 31 | 986.9 |
| 20260505164603 | 73 | 251 | 16.5 | 20.9 | 0.00 | 0.00 | 0.00 | 30 | 986.9 |
| 20260505163056 | 73 | 252 | 13.9 | 21.7 | 0.00 | 0.00 | 0.00 | 30 | 987.0 |
| 20260505161614 | 72 | 259 | 13.0 | 18.2 | 0.00 | 0.00 | 0.00 | 31 | 987.0 |
| 20260505160103 | 72 | 255 | 15.6 | 22.6 | 0.00 | 0.00 | 0.00 | 30 | 987.0 |
| 20260505153051 | 73 | 270 | 15.6 | 22.6 | 0.00 | 0.00 | 0.00 | 29 | 986.7 |
| 20260505151549 | 73 | 289 | 15.6 | 22.6 | 0.00 | 0.00 | 0.00 | 30 | 986.7 |
| 20260505124548 | 66 | 279 | 7.0 | 9.6 | 0.00 | 0.00 | 0.00 | 36 | 985.1 |
| 20260505123018 | 67 | 254 | 7.0 | 9.6 | 0.00 | 0.00 | 0.00 | 34 | 985.0 |
| 20260505121517 | 68 | 252 | 7.0 | 11.3 | 0.00 | 0.00 | 0.00 | 32 | 984.9 |
| 20260505120017 | 69 | 271 | 9.6 | 13.0 | 0.00 | 0.00 | 0.00 | 31 | 984.8 |
| 20260505114515 | 69 | 280 | 10.4 | 13.9 | 0.00 | 0.00 | 0.00 | 30 | 984.7 |
| 20260505113005 | 68 | 271 | 9.6 | 12.2 | 0.00 | 0.00 | 0.00 | 31 | 984.7 |
| 20260505111503 | 66 | 259 | 7.8 | 10.4 | 0.00 | 0.00 | 0.00 | 35 | 984.6 |
| 20260505110106 | 65 | 272 | 6.1 | 7.8 | 0.00 | 0.00 | 0.00 | 37 | 984.5 |
| 20260505101557 | 67 | 254 | 7.0 | 7.8 | 0.00 | 0.00 | 0.00 | 37 | 984.5 |
| 20260505100054 | 65 | 246 | 6.1 | 7.8 | 0.00 | 0.00 | 0.00 | 41 | 984.3 |
| 20260505094550 | 65 | 223 | 7.0 | 13.0 | 0.00 | 0.00 | 0.00 | 42 | 984.5 |
| 20260505093058 | 65 | 275 | 8.7 | 9.6 | 0.00 | 0.00 | 0.00 | 42 | 984.5 |
| 20260505091615 | 65 | 226 | 2.6 | 7.8 | 0.00 | 0.00 | 0.00 | 43 | 984.4 |
| 20260505090057 | 67 | 284 | 6.1 | 7.8 | 0.00 | 0.00 | 0.00 | 38 | 984.7 |
| 20260505084555 | 65 | 257 | 4.3 | 7.0 | 0.00 | 0.00 | 0.00 | 40 | 984.5 |
| 20260505083051 | 64 | 267 | 5.2 | 8.7 | 0.00 | 0.00 | 0.00 | 43 | 984.3 |
| 20260505081557 | 66 | 268 | 8.7 | 9.6 | 0.00 | 0.00 | 0.00 | 41 | 984.5 |
| 20260505074547 | 68 | 250 | 7.0 | 8.7 | 0.00 | 0.00 | 0.00 | 35 | 984.8 |
| 20260505073049 | 69 | 254 | 7.8 | 11.3 | 0.00 | 0.00 | 0.00 | 34 | 985.0 |
| 20260505071556 | 68 | 246 | 9.6 | 11.3 | 0.00 | 0.00 | 0.00 | 36 | 985.1 |
| 20260505070050 | 68 | 248 | 8.7 | 9.6 | 0.00 | 0.00 | 0.00 | 35 | 985.1 |
| 20260505064547 | 70 | 248 | 8.7 | 11.3 | 0.00 | 0.00 | 0.00 | 32 | 985.0 |
| 20260505063058 | 71 | 238 | 9.6 | 12.2 | 0.00 | 0.00 | 0.00 | 31 | 985.2 |
| 20260505061606 | 71 | 238 | 10.4 | 13.0 | 0.00 | 0.00 | 0.00 | 31 | 985.3 |
| 20260505060041 | 71 | 228 | 10.4 | 13.9 | 0.00 | 0.00 | 0.00 | 31 | 985.3 |
| 20260505054541 | 69 | 227 | 7.8 | 12.2 | 0.00 | 0.00 | 0.00 | 33 | 985.4 |
| 20260505053045 | 69 | 259 | 5.2 | 7.8 | 0.00 | 0.00 | 0.00 | 36 | 985.5 |
| 20260505051605 | 71 | 279 | 4.3 | 9.6 | 0.00 | 0.00 | 0.00 | 34 | 985.4 |
| 20260505041546 | 72 | 248 | 7.8 | 10.4 | 0.00 | 0.00 | 0.00 | 32 | 985.6 |
| 20260505040039 | 72 | 242 | 7.8 | 9.6 | 0.00 | 0.00 | 0.00 | 31 | 985.8 |
| 20260505034538 | 74 | 230 | 6.1 | 8.7 | 0.00 | 0.00 | 0.00 | 29 | 985.6 |
| 20260505033042 | 76 | 243 | 2.6 | 4.3 | 0.00 | 0.00 | 0.00 | 25 | 985.6 |
| 20260505031541 | 76 | 286 | 2.6 | 4.3 | 0.00 | 0.00 | 0.00 | 23 | 985.4 |
| 20260505030041 | 76 | 246 | 2.6 | 3.5 | 0.00 | 0.00 | 0.00 | 22 | 985.4 |